Погода в Светлограде

Погода в Светлограде : погода сейчас, прогноз погоды и архив. Всё, что Вы хотите узнать о погоде в Светлограде!

Хотите узнать прогноз погоды в Светлограде? Тогда Вам сюда: Погода в Светлограде

Поиск расширенной информации на нашем сайте:

Другие новости

Новости СМИ2

Главная страница сайта

Новости сайта

03.07.2017

Напоминаем, что на нашем специализированном сайте Метеоцентр.Азия вы можете получить высокодетализированные автоматические прогнозы погоды по пунктам России, СНГ и мира в авиационном формате (включающие направление и скорость ветра, видимость, явления погоды, количество и форму облачности, нижнюю и верхнюю границу облачности).


Погода в Светлограде - сегодня

Время (UTC), дата Ветер
(°,м/с) 
Видим.   Явления Облачность Т
(°С)
Тd
(°С)
f(%) Тe
(°С)
Pmin
(гПа)
dP
(гПа)
Po
(мм)
O2
(г/м3)
Тmin Tmax R s Состояние
почвы
12 20.10.17 300 (СЗ) 20000 м    10/0 верхняя 
[Ci fib]
+19.4 +9.1 51 +20  1017.7  -0.9  751  281           
15 20.10.17 тихо ()   20000 м    8/0 верхняя 
[Ci fib]
+12.6 +9.6 82 +13  1019  0.8  752  288    +20       
18 20.10.17 тихо ()   20000 м    4/0 верхняя 
[Ci fib]
+9.4 +8.5 94 +9  1019.9  0.7  752  291           
21 20.10.17 тихо ()   20000 м    4/0 верхняя 
[Ci fib]
+7.3 +6.9 97 +7  1019  0.7  751  294           
00 21.10.17 тихо ()   10 км    10/10 300 м 
[St]
+6.5 +6.1 97 +7  1018.7  -0.4  751  295           
03 21.10.17 тихо ()   4000 м  дымка  10/10 300 м 
[St]
+5.7 +5.5 99 +6  1018.4  -0.3  751  295  +5.6    0.3     
06 21.10.17 тихо ()   4000 м  дымка{туман}  10/10 300 м 
[St]
+8 +7.8 99 +8  1018.5  0.3  751  293           
09 21.10.17 250 (З) 10 км    10/10 600 м 
[Sc]
+13.4 +10 80 +16  1017.4  -0.8  750  286           
12 21.10.17 тихо ()   10 км    10/8 600 м верхняя 
[Sc|Ci fib]
+15.1 +10 72 +16  1015.4  -1.8  749  284           
15 21.10.17 270 (З) 10 км    10/10 600 м 
[Sc]
+13.8 +10.3 79 +17  1015.6  0.1  749  285    +15.6       
18 21.10.17 тихо ()   10 км    10/10 600 м 
[Sc]
+10.1 +9.4 95 +11  1015.8  749  289           
21 21.10.17 060 (СВ) 10 км    6/6 600 м 
[Sc]
+10 +9.3 95 +11  1014.4  -1.3  748  289           
00 22.10.17 090 (В) 20000 м    ясно 
+8.8 +8.5 98 +10  1013.7  -0.8  747  290           
03 22.10.17 тихо ()   20000 м    8/8 600 м 
[Sc]
+8.8 +8.3 97 +9  1012.5  -1.1  747  290  +7.4         
06 22.10.17 180 (Ю) 20000 м    10/8 600 м 
[Sc]
+12.3 +9.6 84 +13  1011.8  -0.5  746  286           
09 22.10.17 250 (З) 20000 м    10/10 600 м 
[Sc]
+16.1 +7.9 58 +16  1011.1  -0.5  746  282           
12 22.10.17 260 (З) 20000 м    10/10 600 м 
[Sc]
+15.5 +8 61 +16  1010.1  -1  745  283           
15 22.10.17 180 (Ю) 10 км  слаб. ливневой дождь  10/10 300 м кучево-дожд. 
[Cb cap]
+12.7 +11.2 91 +16  1010.3  745  285    +16.2     
18 22.10.17 240 (ЮЗ) 10 км  слаб. ливневой дождь  10/10 300 м кучево-дожд. 
[Cb cap]
+11.2 +10.6 96 +13  1011.3  0.9  746  287           
21 22.10.17 320 (СЗ) 10 км  слаб. ливневой дождь  10/10 300 м кучево-дожд. 
[Cb cap]
+8.5 +7.8 95 +10  1014  2.5  748  291           
00 23.10.17 350 (С) 10 км  в посл. час ливневой дождь  10/10 300 м 
[Sc diur, vesp]
+5.9 +5.4 97 +5  1016.7  2.5  750  295           
03 23.10.17 340 (С) 10 км    10/10 300 м 
[Sc diur, vesp]
+4.8 +3.8 93 +6  1019.4  2.6  752  297  +4.8       
06 23.10.17 040 (СВ) 10 км    10/10 600 м 
[Sc]
+4.4 +3 91 +4  1021.5  753  298  +4.3         
09 23.10.17 050 (СВ) 20000 м    10/10 600 м 
[Sc]
+4.7 +3 89 +4  1022.2  0.7  754  298           
12 23.10.17 090 (В) 20000 м    10/10 600 м 
[Sc]
+5.5 +3.3 86 +5  1022  -0.1  753  297           
Время (UTC), дата Ветер
(°,м/с) 
Видим.   Явления Облачность Т
(°С)
Тd
(°С)
f(%) Тe
(°С)
Pmin
(гПа)
dP
(гПа)
Po
(мм)
O2
(г/м3)
Тmin Tmax R s Состояние
почвы

Для получения пояснительной информации подведите курсор к названию столбца.

ПОГОДА в Светлограде - архив

Всё, что Вы хотите узнать о погоде в Светлограде - удобно и подробно!

Выберите нужную дату (начиная с 1 января 2015* года) и нажмите кнопку "Найти".
Будут отображены архивные сводки погоды по пункту Светлоград, начиная с указанной даты.


Отображать данные в формате CSV (для использования в таблицах Excel)


Внимание! Наш архив погоды предназначен исключительно для личного некоммерческого использования в познавательных целях. Если Вам необходимы официальные справки о состоянии погоды (для производственных, юридических, коммерческих и т.п. целей), обращайтесь в органы Росгидромета.

*Примечание: данная дата относится к архиву по метеостанциям СССР (Россия, СНГ, Балтия).
Архив по метеостанциям Зарубежной Европы и Азии (кроме Китая) хранится 10 дней, по другим регионам земного шара (Китай, Африка, Америка, Австралия, Океания) - 1 день.

Светлоград - район местоположения метеостанции


Название, широта, долгота, высота метеостанции:
Светлоград 45.3°ш. 42.9°д. 140 м над ур. моря [Российская Федерация]

Дополнительная информация

В oтличие oт бoльшинства пoгoдных сайтoв мы публикуем пoдрoбную метеoинфoрмацию в детальнoм прoфессиoнальнoм фoрмате.

Характеристики температуры и влажнoсти вoздуха измеряются на высoте 2 м в тени вдали oт зданий и деревьев.
Скoрoсть ветра измеряется на высoте 10 м (на урoвне рoста челoвека скoрoсть ветра ниже в 1.5-2 раза). Если метеoстанция нахoдится в гoрoде или в лесу, тo скoрoсть ветра занижена на 2-4 м/с пo сравнению с oткрытым местoм. Скoрoсть ветра над акватoриями крупных рек и oзёр, а также на вершинах хoлмoв на 2-5 м/с выше, чем в oбычных услoвиях.
Атмoсфернoе давление в разных тoчках местнoсти мoжет значительнo oтличаться oт давления на метеoстанции, в зависимoсти oт услoвий рельефа (при пoдъёме на 10 м давление пoнижается примернo на 1 мм рт.ст.).